Location: Celina Elementary School
(33.3262°N, 96.7767°W)
Time: 09:06:52
(UTC+00:00)

Cosmos 1606 - Pass Details

Date: 26 November 2021
Orbit: 501 x 524 km, 82.5° (Epoch: 20 January)

Event Time Altitude Azimuth Distance (km) Brightness Sun altitude
Exits shadow 12:12:20 17° 271° (W) 1,387 4.3 -11.8°
Drops below altitude 10° 12:14:46 10° 231° (SW) 1,753 5.1 -11.3°
Sets 12:17:30 0° 210° (SSW) 2,639 6.2 -10.8°
